Helicity
65 64 48 40 25 30 31 45 3 48 49 9 49 6 42 34 31 57 -4 -20 30 1 -11 11 24 28 20 19 21 14 3 1 16 23 3 -25 -29 -5 -1 -4 -5 -4 5 4 14 13 10 11 5
77 79 51 60 47 -1 51 48 18 60 19 65 43 22 56 33 1 13 18 -15 45 5 -8 2 13 19 12 13 17 15 6 13 38 42 3 -11 -7 12 20 5 3 3 7 8 13 12 13 14 5
42 58 37 41 34 29 46 40 24 27 33 120 73 21 18 24 6 38 -17 20 42 5 -7 1 16 21 11 12 11 18 28 23 32 71 9 13 9 15 19 8 9 5 9 5 9 6 4 -2 -7
60 54 44 53 1 19 40 57 30 20 42 45 30 -1 21 21 18 -8 12 40 53 6 5 11 19 18 14 6 12 14 29 24 27 32 19 35 5 11 15 9 9 5 2 -2 2 5 9 0 -2
84 64 57 76 69 40 39 17 28 13 10 37 24 14 32 59 -9 38 40 39 78 20 18 12 20 16 6 0 4 13 18 13 20 33 30 32 -2 3 2 9 5 9 0 3 0 -5 -1 1 20
83 70 116 90 61 40 40 22 8 45 36 36 69 58 15 -7 24 30 35 37 42 51 22 23 21 18 10 3 4 17 17 15 24 22 32 24 16 4 9 10 10 5 2 5 6 0 6 1 3
84 74 128 103 34 23 40 35 53 22 13 25 90 45 8 -14 -9 25 28 49 31 40 32 26 23 25 24 10 12 14 9 13 16 20 25 23 16 6 0 19 8 -1 3 4 7 4 14 -8 7
72 97 125 155 99 64 63 79 87 78 11 62 47 25 35 -21 -10 13 13 28 42 33 30 34 28 30 25 16 18 7 7 13 22 12 17 6 18 2 12 -1 0 -15 -5 -4 -4 -12 -3 -6 7
121 166 175 167 152 62 80 119 118 103 104 44 31 20 53 59 10 20 16 15 23 29 20 29 31 28 32 22 11 8 15 12 16 5 5 -2 6 2 0 8 -16 -17 -15 -14 -13 -15 -13 12 -8
138 171 176 154 97 61 77 111 178 141 157 66 65 80 158 82 19 47 35 41 49 42 28 18 23 25 27 22 5 1 9 7 5 3 -4 1 4 -6 -9 2 -5 -7 -7 -10 -7 -12 -19 9 28
175 175 115 110 86 38 87 106 133 181 169 137 216 148 137 55 -6 4 -1 30 44 33 30 15 7 15 19 9 4 5 12 10 3 -8 -8 -10 -7 -8 -8 -6 -6 -11 -14 -9 -12 -22 19 -2 -23
129 193 134 70 73 46 82 69 92 160 123 191 253 265 149 65 10 5 25 57 60 41 27 5 2 3 8 0 -2 -3 3 2 1 -9 -13 -12 -15 -21 -14 -14 -16 -9 -1 1 -2 -7 -14 -16 -12
121 126 96 68 60 81 49 45 57 117 47 189 228 190 124 34 6 -12 10 29 54 49 40 26 8 -1 2 1 -5 -12 -8 -10 -5 -9 -5 -10 -12 -10 -15 -14 -12 -10 -3 -9 -17 -19 -21 -20 -2
80 67 49 52 60 78 34 23 41 62 160 171 207 148 107 62 28 13 24 54 64 33 49 53 37 12 10 9 3 -14 -21 -22 -23 -18 -15 -2 -4 -3 -12 -9 -11 -13 -11 -15 -14 0 -13 -5 8
41 37 31 25 61 47 81 27 57 76 214 198 158 147 52 54 39 84 84 72 88 48 50 65 62 21 28 31 6 -14 -6 -10 -12 -17 -20 -9 -16 -12 -11 -7 -12 -16 -18 -21 -17 3 -1 -5 2
25 15 28 11 103 60 68 54 33 138 246 198 197 160 115 54 60 50 64 62 65 68 51 39 28 -12 15 18 -6 -16 2 -11 -10 -9 -8 -5 -2 -5 -8 2 -8 -6 -9 -16 2 0 -3 3 19
27 67 99 -14 45 30 97 69 50 144 169 215 224 193 150 99 47 8 43 80 98 109 118 56 47 2 -5 -32 -37 -34 -20 -5 -5 2 6 25 21 14 16 14 -14 -11 -4 3 25 8 4 7 12
54 33 40 53 51 31 89 92 58 174 158 187 231 232 166 200 148 82 27 48 84 105 109 82 62 27 2 -18 -24 -47 -42 -37 -26 10 29 39 63 76 40 5 -7 -4 21 30 35 14 4 3 20
64 26 8 -10 24 47 61 122 74 157 184 177 185 204 259 219 121 122 111 110 104 100 124 127 110 64 81 41 6 -19 3 -15 -19 -10 20 41 57 75 89 67 31 37 55 62 28 19 21 15 35
30 55 -3 -31 -1 16 2 30 14 151 235 284 244 248 253 135 230 189 176 161 184 220 200 198 167 94 88 78 38 30 4 -24 -23 13 18 27 43 56 48 67 76 77 63 37 55 73 49 39 71
108 34 19 0 -40 -18 12 -33 -44 -15 44 167 227 215 234 255 164 263 273 312 215 232 262 267 253 192 135 102 113 105 72 56 31 -3 12 26 44 75 74 62 65 87 85 58 70 93 66 53 81
51 31 19 4 -12 -47 -7 -10 -6 -69 3 111 184 270 225 223 233 202 309 284 351 255 238 229 233 208 185 183 146 155 117 82 49 51 45 48 56 72 74 63 62 67 69 73 74 81 78 56 67
35 36 34 20 -11 -9 -8 31 -4 49 -29 6 114 252 323 247 243 311 348 306 301 318 276 217 194 182 173 216 178 177 152 127 85 84 60 56 36 41 63 64 51 48 51 59 78 85 91 87 62
37 48 84 53 20 70 -12 25 13 -10 9 33 10 79 221 299 221 237 303 299 232 275 258 206 152 162 180 201 196 196 175 135 109 97 89 61 28 11 31 69 66 51 53 64 76 84 97 105 100
26 44 49 42 109 95 8 8 -2 75 68 32 58 9 66 148 184 203 267 341 263 291 326 267 193 127 165 176 162 186 157 132 108 114 130 93 43 14 17 54 64 65 69 69 72 84 96 118 124
3 28 80 69 83 81 18 11 0 2 45 72 27 44 52 111 144 176 224 263 306 301 333 314 228 143 130 173 144 137 139 100 63 86 108 87 77 51 32 56 75 86 83 77 90 99 115 126 133
22 22 -4 62 27 43 65 30 6 41 86 127 109 85 83 72 94 126 177 213 256 307 301 306 225 142 106 88 83 104 111 103 47 51 92 72 46 11 17 45 53 54 73 81 96 68 75 113 113
15 19 36 36 54 58 30 35 109 158 150 61 59 78 71 54 61 65 133 224 194 233 260 246 214 216 121 89 109 142 161 156 84 12 58 78 51 26 -4 10 22 13 30 43 55 35 51 77 57
78 94 83 51 62 78 50 17 53 39 -9 -7 0 28 6 3 13 41 75 108 155 188 195 216 205 296 232 26 77 166 161 163 134 78 38 63 48 45 23 9 2 5 3 7 38 47 35 71 51
24 48 64 82 62 81 93 49 39 -13 -13 -32 -10 -10 -17 -6 9 11 46 110 163 167 135 130 145 305 330 -11 -28 -8 49 110 107 104 106 66 60 35 42 31 11 -4 -7 -21 -14 -4 3 16 23
Wind_Speed
42 41 39 33 39 41 46 36 35 38 44 33 58 39 41 29 35 33 50 63 63 66 63 61 60 57 56 56 56 55 54 52 48 45 50 59 56 57 59 61 59 45 57 50 57 58 60 61 59
39 40 35 34 52 54 37 35 47 34 32 47 36 27 34 32 31 47 64 65 63 66 63 60 58 57 56 55 54 53 52 51 49 49 58 61 60 56 48 55 54 60 56 58 59 60 62 63 62
37 35 24 30 30 49 42 27 26 38 38 44 33 22 28 33 39 66 60 67 60 66 63 59 56 57 56 55 52 52 52 51 50 50 59 62 59 43 53 52 60 59 61 61 60 61 62 61 59
30 37 23 46 25 34 38 43 41 36 39 30 33 17 25 38 52 60 63 62 58 65 62 58 57 56 55 53 52 51 51 52 51 56 58 58 56 50 49 54 60 61 59 60 60 61 62 59 55
27 40 36 43 41 36 40 44 43 36 41 44 36 21 30 38 35 55 60 56 58 64 61 58 57 55 54 52 50 49 51 51 52 55 56 52 53 54 54 54 58 59 59 60 59 58 58 55 55
38 33 53 55 34 36 43 40 40 42 46 45 51 45 36 51 45 55 58 53 56 61 59 58 56 54 52 51 49 50 50 52 52 55 55 54 53 55 55 56 57 58 56 56 55 54 53 51 53
38 35 39 34 50 44 36 45 46 46 46 45 52 48 38 54 52 49 56 47 55 57 60 56 54 52 51 50 51 50 50 51 52 55 55 55 53 54 54 54 55 54 53 53 51 46 49 49 53
35 35 38 37 35 38 41 41 47 47 42 50 49 41 48 57 56 37 54 50 52 58 58 57 53 50 48 48 51 51 50 50 51 55 56 55 55 54 55 53 53 52 51 49 48 46 48 46 51
34 41 42 43 41 38 38 44 40 45 47 43 44 41 50 55 53 50 56 59 56 57 57 56 54 51 48 48 51 52 51 49 49 52 55 54 50 52 52 51 51 50 49 48 47 46 38 11 48
40 43 43 38 42 43 42 40 43 42 45 43 45 47 51 54 57 60 60 58 56 57 58 56 54 52 50 48 48 51 47 47 47 49 50 50 49 50 52 50 49 48 48 48 47 45 34 38 36
38 39 32 39 40 39 44 38 36 47 41 40 47 53 60 60 61 58 58 56 55 55 57 56 54 53 51 49 50 50 46 47 48 50 51 50 47 48 48 48 47 46 46 45 46 43 39 38 38
35 30 26 30 39 39 44 37 34 44 40 41 48 54 61 61 60 58 52 54 55 54 54 55 55 53 51 49 51 51 48 48 48 50 51 49 47 47 45 47 47 47 46 46 44 44 42 36 34
31 24 30 36 36 38 37 37 35 34 44 51 54 56 60 59 59 55 50 48 49 52 52 52 52 53 52 50 51 51 50 49 48 49 49 48 46 45 46 46 45 45 44 43 42 40 38 36 30
14 18 22 33 33 36 34 33 36 39 47 51 54 57 59 55 56 53 50 50 49 50 51 49 51 52 52 49 51 53 52 52 50 50 49 47 46 44 44 45 45 44 42 42 39 36 33 29 31
26 28 26 31 35 36 34 31 34 39 46 49 51 53 54 55 53 53 52 51 50 49 50 49 49 50 50 49 48 53 54 53 51 50 49 45 45 43 44 43 42 41 41 41 36 32 30 31 31
36 37 28 29 35 30 34 29 30 41 45 47 49 49 48 50 52 51 49 48 50 48 50 49 48 50 48 47 48 51 52 53 52 50 48 45 43 40 40 42 42 40 38 36 32 30 27 29 30
36 35 9 31 30 30 30 25 32 40 44 44 46 47 46 44 45 49 49 47 47 49 49 48 45 45 46 48 46 49 48 50 51 50 47 45 43 40 39 41 42 38 35 32 28 26 25 25 25
23 33 34 28 27 28 23 22 27 34 40 39 42 44 41 45 44 45 47 46 45 45 47 47 43 40 39 35 40 49 50 51 51 50 47 41 41 39 35 38 39 35 28 26 26 24 22 23 21
17 26 30 31 34 28 22 20 24 29 34 39 40 42 42 46 43 45 45 43 41 41 43 45 45 44 38 32 30 41 49 44 48 49 48 45 37 33 33 34 32 31 26 25 25 21 20 21 17
27 31 30 23 30 22 22 15 19 29 36 37 39 42 42 45 39 40 41 42 41 41 44 44 46 45 43 35 20 3 38 52 48 46 46 43 41 28 28 30 29 26 21 23 23 22 14 18 16
38 26 26 28 33 29 39 20 12 20 35 33 44 40 45 46 44 35 36 40 41 43 45 43 45 45 41 35 19 17 23 42 53 55 47 43 34 25 24 27 27 21 20 28 24 27 24 20 17
34 30 25 28 37 25 42 47 17 18 25 38 41 37 42 46 45 37 33 41 42 45 41 42 41 43 42 37 35 35 23 32 37 32 28 32 27 23 26 26 27 27 25 29 29 27 28 19 21
21 43 38 32 27 26 36 38 29 29 17 25 29 40 41 40 46 42 39 43 45 41 42 42 38 40 40 41 39 38 33 31 18 18 24 21 28 26 24 22 28 32 32 29 26 24 24 24 21
32 37 42 34 27 27 33 38 27 35 28 30 24 35 40 36 44 44 39 42 42 40 35 37 37 37 37 38 41 41 38 27 19 22 28 31 38 55 46 27 28 29 29 29 30 26 22 25 20
31 40 41 34 32 24 30 31 26 57 50 13 44 42 33 34 37 38 42 36 34 36 35 32 33 35 35 36 39 42 42 30 28 23 20 27 35 47 50 39 29 27 31 31 21 18 19 18 20
37 37 41 38 34 33 33 31 33 52 53 42 35 41 16 30 29 30 36 32 31 31 29 29 32 37 38 37 40 39 38 33 24 21 14 19 25 33 37 39 35 32 20 21 21 20 22 17 22
32 39 37 37 37 35 34 36 34 55 47 39 34 26 25 23 19 17 19 31 27 26 27 29 31 36 38 35 29 30 28 29 29 24 14 19 28 39 35 35 39 41 32 29 16 29 31 23 24
33 28 39 40 39 40 40 37 44 55 48 43 35 29 23 18 15 18 26 21 21 17 14 20 27 31 18 15 28 29 30 26 25 18 26 23 33 37 40 43 44 47 43 34 25 33 38 37 43
37 38 39 36 35 35 41 39 40 44 37 36 34 30 24 20 19 21 16 15 13 9 4 4 11 13 14 55 31 36 28 27 23 21 32 34 40 48 51 50 49 50 51 47 24 33 41 26 36
38 40 41 42 40 35 34 37 42 35 32 31 30 30 27 24 22 22 21 23 24 23 16 10 1 7 14 70 70 53 38 22 10 19 28 36 48 53 53 51 49 50 52 58 56 56 50 41 35
Wind_Direction
124 131 121 140 126 123 108 128 162 160 144 169 131 158 148 176 163 156 147 131 122 130 136 143 143 144 139 134 130 126 122 112 101 100 112 140 110 125 110 126 136 155 107 77 87 89 93 94 89
137 130 121 135 96 72 129 135 116 165 175 141 164 189 178 173 180 138 147 131 121 132 137 146 149 143 140 138 131 127 131 118 127 141 158 153 137 121 155 148 146 124 89 92 94 97 97 96 95
135 137 146 145 143 114 123 156 156 143 164 152 179 224 203 179 158 125 144 125 117 135 139 142 148 144 140 139 142 139 137 127 140 143 151 149 145 166 150 153 132 102 105 104 103 102 103 96 91
153 127 159 111 150 135 129 123 135 146 150 178 171 216 191 158 102 149 117 117 114 139 142 143 141 144 146 145 145 143 145 140 142 145 145 149 153 155 159 147 128 115 99 100 102 104 107 99 93
152 120 124 118 116 130 117 105 115 133 127 131 159 197 164 160 77 107 115 113 116 138 146 145 141 143 147 149 150 150 149 152 150 149 150 155 151 148 146 145 130 116 104 108 103 101 110 105 120
120 132 99 93 128 128 111 113 111 121 123 123 103 117 170 120 98 113 118 113 117 127 149 149 147 146 149 152 155 154 152 154 154 149 152 152 152 146 142 141 132 112 107 108 100 102 105 92 116
108 120 116 120 85 100 131 110 96 99 98 122 116 118 173 144 115 110 119 109 120 127 145 156 156 151 153 155 158 160 156 156 154 153 153 149 151 148 147 144 134 110 108 110 98 82 88 89 103
114 118 113 119 125 124 124 121 97 95 101 109 121 122 134 145 120 99 118 116 121 139 149 151 160 161 161 161 161 161 160 162 159 152 149 148 145 141 140 137 127 117 113 108 101 91 95 87 108
120 105 102 105 115 125 131 112 124 98 94 132 132 125 116 115 113 112 123 136 134 144 152 156 159 164 166 166 165 161 161 163 164 162 155 151 159 147 148 147 116 123 126 119 114 109 74 248 129
105 99 101 121 110 127 124 120 117 112 103 116 125 80 102 114 123 129 135 138 140 144 153 158 159 162 164 171 176 169 173 174 172 172 168 163 165 156 147 148 136 128 133 128 126 118 111 170 170
103 103 109 112 114 130 119 126 129 103 112 120 122 115 124 127 137 137 143 146 143 143 153 162 163 164 163 171 173 173 181 174 170 167 167 165 164 159 157 152 144 138 127 120 133 129 178 162 105
101 108 130 127 122 129 117 122 127 114 108 114 120 123 131 137 141 142 137 142 143 145 150 159 167 165 168 175 173 171 186 181 178 167 160 157 153 158 157 156 151 141 139 134 131 134 129 94 76
103 106 116 118 125 129 128 120 124 136 88 98 106 123 134 139 146 148 141 136 140 148 151 154 158 166 167 173 174 173 187 187 186 178 167 162 151 152 160 165 158 150 142 135 129 124 141 127 84
116 127 149 128 133 131 128 124 123 121 89 98 110 121 132 139 147 143 143 144 144 146 152 150 156 161 167 167 167 175 182 186 188 184 173 164 160 158 154 157 156 156 143 140 131 134 133 110 126
102 104 115 132 126 114 123 123 129 128 103 108 119 126 135 143 143 148 150 151 150 150 149 150 152 155 159 163 159 172 179 184 177 178 178 173 165 160 160 160 153 153 151 148 137 135 112 111 112
87 90 100 108 109 134 105 114 134 124 119 122 128 136 136 147 154 153 151 153 154 148 153 152 152 157 157 156 160 162 166 177 185 182 183 178 164 160 159 164 163 155 150 148 137 127 112 116 120
78 72 130 88 130 103 122 117 107 126 141 133 139 139 144 148 154 163 159 154 153 154 151 153 151 153 155 160 160 167 166 171 178 187 181 178 175 166 166 169 171 158 149 143 131 122 114 122 128
75 58 67 89 91 146 134 163 108 130 146 147 147 145 149 159 162 160 163 158 155 155 157 155 151 148 151 146 156 178 182 185 188 189 185 173 175 172 165 170 172 165 148 143 140 135 123 132 130
81 57 53 62 59 89 145 177 173 149 152 162 163 164 164 167 161 162 163 164 161 159 160 161 158 158 150 148 149 168 181 174 186 192 190 184 171 163 165 170 167 165 157 154 155 139 133 139 80
55 37 39 53 52 84 84 168 130 148 171 169 168 174 177 181 159 162 164 166 166 167 168 167 169 167 165 158 148 339 169 199 193 189 187 182 178 158 162 162 162 156 145 150 150 146 82 131 92
7 40 36 29 17 29 2 261 131 148 178 170 187 184 187 184 178 157 160 165 170 172 173 171 172 172 169 165 147 292 290 268 244 217 186 181 169 157 156 163 162 152 149 169 159 163 159 152 103
9 30 29 22 13 27 357 337 153 111 157 183 194 187 190 187 182 170 159 165 166 174 173 174 172 174 173 166 165 166 162 165 173 168 164 169 164 161 165 167 171 169 163 173 175 170 175 153 157
34 352 356 9 21 34 13 17 30 350 88 197 193 197 194 186 182 173 168 170 175 166 168 170 171 173 173 171 172 170 168 169 157 158 165 164 173 174 169 169 174 180 177 176 174 170 170 174 170
2 2 354 5 21 26 26 19 44 22 17 226 185 194 193 176 177 176 168 168 172 168 164 168 169 172 172 173 173 175 174 167 162 164 172 177 184 206 195 179 180 180 180 182 186 182 176 183 183
19 3 360 6 8 26 26 21 33 317 292 207 232 217 173 157 160 162 165 161 163 166 166 167 170 174 174 177 178 178 179 172 173 169 166 171 181 197 202 190 185 185 190 190 181 180 183 184 191
14 18 8 2 358 352 2 7 15 352 321 303 302 216 78 126 135 148 163 160 163 166 164 165 170 178 178 178 181 180 180 181 177 174 166 168 174 182 189 193 191 193 188 189 187 189 194 194 202
10 360 18 11 11 2 359 0 1 327 329 326 332 4 71 96 103 116 133 163 164 164 174 171 176 181 179 178 176 178 180 184 187 180 172 173 182 193 192 193 197 201 194 193 188 203 205 201 206
9 28 356 356 352 352 351 352 345 306 305 326 337 339 344 19 46 99 136 143 163 162 170 184 185 187 203 194 174 179 181 185 189 190 185 180 186 191 197 201 203 208 206 200 196 203 213 214 222
1 355 354 357 351 349 344 347 360 339 343 342 346 347 356 27 71 89 80 93 107 67 117 189 238 291 321 265 191 189 196 186 187 189 192 192 196 203 208 209 212 213 216 214 196 205 215 207 216
10 360 360 348 341 341 341 342 351 348 342 344 352 349 356 11 16 18 32 30 27 25 33 49 274 259 233 250 219 202 186 181 191 188 191 195 206 210 212 210 211 215 219 227 225 227 227 218 213